[[{"header":{"parameterUnit":"m.s-1","parameterCategory":1,"la1":30.2991,"la2":30.254,"lo1":-89.0895,"lo2":-89.0444,"dy":0.0017,"dx":0.0017,"nx":28,"ny":28,"refTime":"2023-10-08T03:00:00:Z","depth":0,"parameterNumber":2,"parameterNumberName":"U-component_of_WINDS"},"data":[0,0,0,0,0,0,0,0,0,0,0,0,0,0,0,0,0,0,0,0,0,0,0,0,0,0,0,0,0,0,0,0,0,0,0,0,0,0,0,0,0,0,0,0,0,0,0,0,0,0,0,0,0,0,0,0,0,0,1.945,1.945,0,1.9466,1.9466,1.9466,1.9445,1.9444,1.9443,1.9443,1.946,1.9461,1.9462,0,0,0,0,0,0,0,0,0,0,0,0,0,1.9401,1.9402,1.945,1.945,1.945,1.9466,1.9466,1.9466,1.9445,1.9444,1.9443,1.9442,1.9459,1.9461,1.9462,0,0,0,0,0,0,0,0,0,0,0,0,0,1.942,1.9402,1.945,1.9441,1.9441,1.9466,1.9466,1.9466,1.9445,1.9444,1.9443,1.9442,1.9459,1.9461,1.9462,1.9496,0,0,1.9468,1.9468,0,0,0,0,0,0,0,0,1.9419,1.9422,1.9442,1.9442,1.9441,1.9452,1.9455,1.9476,1.9446,1.9444,1.9443,1.9441,1.9458,1.946,1.9465,1.9497,1.9497,1.9468,1.9469,1.947,1.947,0,0,0,0,0,0,0,1.9418,1.9421,1.9456,1.9443,1.9442,1.9437,1.9438,1.9459,1.9457,1.9444,1.9442,1.9444,1.9458,1.9464,1.9466,1.9498,1.9468,1.9469,1.947,1.9471,1.9556,1.9557,0,0,0,0,0,0,1.9417,1.942,1.9455,1.9456,1.9427,1.9439,1.944,1.945,1.9457,1.9457,1.9445,1.9443,1.9461,1.9464,1.9466,1.9505,1.9469,1.9471,1.9472,1.9555,1.9556,1.9558,0,0,0,0,0,0,1.9417,1.9421,1.9455,1.9438,1.9442,1.9441,1.9452,1.9451,1.9457,1.9458,1.9458,1.9452,1.9461,1.9464,1.9488,1.9505,1.9472,1.9473,1.9553,1.9555,1.9557,1.9583,0,0,0,0,0,0,1.9415,1.9421,1.9433,1.9438,1.9443,1.9477,1.9453,1.9452,1.946,1.9457,1.9464,1.9464,1.946,1.9486,1.949,1.9507,1.9475,1.9552,1.9554,1.9556,1.9581,1.9586,1.959,0,0,0,0,0,1.9414,1.9441,1.9434,1.9438,1.9459,1.9478,1.948,1.9475,1.9461,1.9474,1.9475,1.9464,1.9503,1.9488,1.9493,1.9511,1.9551,1.9554,1.9556,1.9579,1.9585,1.959,0,0,0,0,0,0,1.9438,1.9441,1.9434,1.9463,1.947,1.9474,1.949,1.9481,1.9493,1.949,1.9483,1.9484,1.951,1.9513,1.9497,1.9543,1.9525,1.9528,1.954,1.9546,1.9551,1.9549,1.9476,0,0,0,0,0,1.9447,1.9462,1.9464,1.9489,1.9493,1.9491,1.9499,1.9494,1.9501,1.9504,1.9507,1.9514,1.9528,1.9537,1.955,1.9582,1.9582,1.9596,1.9601,1.9604,1.9608,1.9623,1.9629,1.9567,1.9567,1.9567,0,0,1.9465,1.9468,1.9478,1.9494,1.9499,1.9515,1.9494,1.9512,1.9523,1.9507,1.953,1.9532,1.954,1.9568,1.958,1.9571,1.9625,1.9608,1.9611,1.9612,1.9627,1.9633,1.9638,1.9568,1.9568,1.9568,0,0,1.9506,1.951,1.9532,1.9537,1.9545,1.9543,1.9548,1.9553,1.9554,1.9577,1.9565,1.9579,1.9603,1.9608,1.9615,1.9657,1.9647,1.9662,1.9685,1.9701,1.9706,1.971,1.9724,1.973,1.9665,1.9665,1.9665,0,1.9527,1.955,1.9544,1.9562,1.9569,1.9555,1.9577,1.9582,1.9594,1.9599,1.9588,1.9618,1.9622,1.9651,1.9661,1.9667,1.9672,1.9661,1.9706,1.971,1.9714,1.9727,1.9733,1.9667,1.9667,1.9666,1.9666,0,1.9576,1.9592,1.9609,1.962,1.9629,1.9649,1.9645,1.9655,1.9649,1.9649,1.9672,1.9677,1.969,1.9696,1.9691,1.9724,1.9718,1.9707,1.9688,1.9721,1.9734,1.9739,1.9669,1.9668,1.9668,1.9668,0,0,1.9632,1.9639,1.9645,1.965,1.9657,1.9669,1.9689,1.9701,1.9709,1.9718,1.9733,1.9754,1.9743,1.975,1.9745,1.9759,1.9792,1.9746,1.9746,1.9754,1.9827,1.9835,1.9841,1.9785,1.9786,1.9787,1.9826,0,1.9673,1.9705,1.97,1.9731,1.9746,1.9733,1.9749,1.9755,1.9755,1.9768,1.9768,1.9782,1.9767,1.9771,1.9784,1.9785,1.9806,1.9782,1.9799,1.98,1.9797,1.9847,1.9856,1.9892,1.9831,1.9832,1.9832,0,1.9724,1.9733,1.9766,1.9771,1.9776,1.9791,1.9802,1.9814,1.9821,1.982,1.9827,1.982,1.9838,1.982,1.9845,1.9829,1.9835,1.9837,1.9838,1.9839,1.9817,1.9849,1.9904,1.9909,1.984,1.984,1.9839,0,1.976,1.9782,1.9804,1.9808,1.9814,1.9825,1.9828,1.9833,1.9841,1.985,1.9855,1.9867,1.9873,1.9882,1.9878,1.9865,1.9904,1.9885,1.9903,1.9903,1.9911,1.991,1.9967,1.9917,1.9917,1.9917,1.9917,0,1.9805,1.9825,1.982,1.9834,1.9856,1.985,1.9872,1.9874,1.9878,1.9892,1.9882,1.9895,1.9889,1.9901,1.9898,1.9919,1.9922,1.9922,1.992,1.9922,1.9922,1.9926,1.9923,1.9918,1.9918,1.9918,1.9918,0,1.9849,1.9847,1.987,1.9873,1.9875,1.9891,1.9894,1.9906,1.9905,1.9923,1.9926,1.9925,1.9939,1.9936,1.9951,1.9949,1.9975,1.9971,1.9973,1.9971,1.9989,1.9987,2.005,2.0057,2.0003,2.0004,2.0004,0,1.9877,1.9893,1.9898,1.9906,1.9909,1.9923,1.993,1.9925,1.9933,1.9942,1.9953,1.9966,1.9976,1.9999,1.9999,2.0011,2.0007,2.0028,2.0008,2.0009,2.0006,2.0004,2.0005,2.0031,2.0032,2.0032,2.0033,0,1.9927,1.9925,1.9937,1.9948,1.9957,1.9965,1.9973,1.998,1.9975,1.9985,1.9999,2.0006,2.0022,2.0035,2.0045,2.0048,2.0039,2.0039,2.0044,2.0045,2.0045,2.0044,1.9982,2.0037,2.0037,2.0037,2.0036,2.0036,1.9964,1.9976,1.9982,1.9994,1.9999,2.0006,2.0018,2.0019,2.003,2.0042,2.0038,2.0054,2.006,2.0073,2.0077,2.0089,2.0081,2.0088,2.009,2.0091,2.0093,2.0043,2.0091,2.0091,2.0091,2.0091,2.0091,0,2.0012,2.0015,2.0027,2.0037,2.0047,2.0038,2.0046,2.0055,2.0069,2.0075,2.0085,2.01,2.0113,2.0114,2.0125,2.0135,2.0131,2.0138,2.0137,2.0137,2.01,2.0094,2.0141,2.0141,2.0141,2.0141,2.0141,2.0141,2.0039,2.0059,2.0058,2.0081,2.0083,2.0098,2.0103,2.011,2.0114,2.0132,2.0142,2.0143,2.0147,2.0158,2.0169,2.0169,2.0173,2.0181,2.018,2.0145,2.014,2.0135,2.013,2.0183,2.0183,2.0216,2.0216,2.0216]},{"header":{"parameterUnit":"m.s-1","parameterCategory":1,"la1":30.2991,"la2":30.254,"lo1":-89.0895,"lo2":-89.0444,"dy":0.0017,"dx":0.0017,"nx":28,"ny":28,"refTime":"2023-10-08T03:00:00:Z","depth":0,"parameterNumber":3,"parameterNumberName":"V-component_of_WINDS"},"data":[0,0,0,0,0,0,0,0,0,0,0,0,0,0,0,0,0,0,0,0,0,0,0,0,0,0,0,0,0,0,0,0,0,0,0,0,0,0,0,0,0,0,0,0,0,0,0,0,0,0,0,0,0,0,0,0,0,0,3.2958,3.2957,0,3.293,3.293,3.2929,3.2939,3.2939,3.294,3.294,3.2907,3.2905,3.2904,0,0,0,0,0,0,0,0,0,0,0,0,0,3.3013,3.3012,3.2958,3.2957,3.2957,3.293,3.293,3.2929,3.2938,3.2939,3.294,3.2941,3.2907,3.2905,3.2904,0,0,0,0,0,0,0,0,0,0,0,0,0,3.2987,3.3012,3.2958,3.2958,3.2958,3.293,3.293,3.2929,3.2938,3.2939,3.294,3.2941,3.2908,3.2906,3.2903,3.2871,0,0,3.2897,3.2896,0,0,0,0,0,0,0,0,3.2989,3.2985,3.2959,3.2958,3.2958,3.2939,3.2937,3.291,3.2938,3.2946,3.294,3.2941,3.2916,3.2913,3.2906,3.287,3.2868,3.2896,3.2895,3.2894,3.2893,0,0,0,0,0,0,0,3.2991,3.2986,3.2946,3.2958,3.2958,3.2958,3.2956,3.2932,3.2926,3.2945,3.2946,3.2943,3.2916,3.2908,3.2905,3.2868,3.2896,3.2894,3.2893,3.2892,3.2802,3.2801,0,0,0,0,0,0,3.2993,3.2988,3.2947,3.2946,3.2976,3.2957,3.2954,3.2944,3.2926,3.2925,3.2942,3.2943,3.2911,3.2908,3.2904,3.2865,3.2894,3.2892,3.2891,3.2803,3.2802,3.2801,0,0,0,0,0,0,3.2994,3.299,3.2948,3.2967,3.2962,3.2955,3.2944,3.2943,3.2935,3.2924,3.2922,3.2935,3.2912,3.2907,3.2879,3.2864,3.2891,3.2889,3.2805,3.2803,3.2802,3.2786,0,0,0,0,0,0,3.2996,3.299,3.2979,3.2967,3.2961,3.2926,3.2943,3.2942,3.2932,3.2933,3.2917,3.2915,3.2912,3.2883,3.2877,3.2861,3.2887,3.2806,3.2804,3.2802,3.2788,3.2784,3.2781,0,0,0,0,0,3.2998,3.2974,3.2978,3.2973,3.2947,3.2925,3.2921,3.292,3.293,3.2918,3.2911,3.2916,3.2867,3.288,3.2874,3.2857,3.2807,3.2805,3.2802,3.2789,3.2785,3.2781,0,0,0,0,0,0,3.2983,3.2973,3.2977,3.2949,3.2938,3.2927,3.2911,3.2915,3.29,3.2901,3.2899,3.2895,3.2867,3.2859,3.2874,3.2824,3.2838,3.2834,3.283,3.2826,3.2822,3.2824,3.2885,0,0,0,0,0,3.2977,3.2961,3.2953,3.2929,3.2923,3.2918,3.2909,3.2909,3.2897,3.2891,3.2882,3.2868,3.285,3.2837,3.282,3.2787,3.2783,3.2772,3.2768,3.2766,3.2762,3.2743,3.2738,3.2793,3.2793,3.2793,0,0,3.2963,3.2956,3.2946,3.2926,3.2917,3.29,3.2914,3.2895,3.2881,3.2888,3.2861,3.2854,3.2838,3.2808,3.2794,3.2801,3.2746,3.2763,3.276,3.2758,3.274,3.2735,3.273,3.2792,3.2792,3.2792,0,0,3.2929,3.2923,3.2902,3.2894,3.2881,3.2878,3.2873,3.2861,3.2857,3.2831,3.2835,3.2818,3.2786,3.2775,3.2765,3.2727,3.273,3.2721,3.2702,3.2683,3.2679,3.2675,3.266,3.2655,3.2718,3.2717,3.2717,0,3.2913,3.2889,3.289,3.2871,3.2861,3.2869,3.2846,3.2837,3.2819,3.2811,3.282,3.278,3.277,3.2736,3.2727,3.2719,3.2712,3.2722,3.268,3.2676,3.2672,3.2658,3.2653,3.2716,3.2717,3.2717,3.2717,0,3.2869,3.2852,3.2836,3.282,3.2809,3.2788,3.2785,3.2773,3.2775,3.277,3.2743,3.2731,3.2711,3.2703,3.2703,3.2669,3.2674,3.2681,3.2695,3.2666,3.2652,3.2647,3.2715,3.2715,3.2716,3.2716,0,0,3.2824,3.281,3.2804,3.2797,3.2784,3.2769,3.2748,3.2731,3.272,3.2707,3.2688,3.2661,3.2668,3.2656,3.2656,3.2639,3.2609,3.2648,3.2648,3.264,3.2569,3.2563,3.2557,3.2611,3.261,3.2609,3.257,0,3.2788,3.2754,3.2755,3.2721,3.2705,3.2711,3.2693,3.2682,3.2677,3.266,3.2654,3.2635,3.2646,3.2639,3.2624,3.2616,3.2594,3.2619,3.2592,3.2591,3.2595,3.255,3.2544,3.2507,3.2565,3.2564,3.2563,0,3.2742,3.2729,3.2695,3.2684,3.2677,3.2661,3.2644,3.2629,3.2616,3.2614,3.2601,3.2603,3.258,3.2595,3.2562,3.2579,3.2568,3.2562,3.2561,3.2557,3.2575,3.2544,3.2495,3.2489,3.2555,3.2556,3.2556,0,3.2711,3.2685,3.2661,3.2655,3.2642,3.263,3.2624,3.2612,3.2601,3.2586,3.2579,3.256,3.255,3.2535,3.2531,3.2543,3.2497,3.2513,3.2493,3.2493,3.2482,3.2483,3.243,3.2477,3.2477,3.2477,3.2477,0,3.267,3.2649,3.2647,3.2633,3.2608,3.2609,3.2584,3.2578,3.2568,3.2551,3.2555,3.2538,3.2534,3.2516,3.2513,3.2485,3.2481,3.2477,3.2476,3.2476,3.2476,3.2467,3.2469,3.2476,3.2476,3.2476,3.2477,0,3.2631,3.263,3.2604,3.2595,3.2592,3.2574,3.2565,3.2549,3.2546,3.2524,3.2518,3.2511,3.2491,3.2486,3.246,3.2458,3.2425,3.2427,3.243,3.2429,3.241,3.2411,3.2348,3.234,3.2394,3.2393,3.2393,0,3.2605,3.2589,3.2578,3.2568,3.2561,3.2545,3.2534,3.2534,3.2522,3.2506,3.2492,3.2473,3.2456,3.2422,3.2414,3.2394,3.2395,3.2374,3.2392,3.2392,3.2393,3.2394,3.2391,3.237,3.237,3.2369,3.2369,0,3.2558,3.2558,3.2544,3.2529,3.2516,3.2504,3.2492,3.2483,3.2481,3.2467,3.2447,3.2435,3.241,3.2389,3.237,3.2361,3.2364,3.2364,3.2358,3.2357,3.2359,3.2357,3.2419,3.2365,3.2365,3.2365,3.2366,3.2366,3.2524,3.2509,3.25,3.2483,3.2475,3.2464,3.2449,3.2444,3.2428,3.2409,3.2409,3.2386,3.2373,3.2347,3.2337,3.2318,3.2324,3.2316,3.2314,3.2312,3.231,3.2363,3.2315,3.2315,3.2315,3.2315,3.2315,0,3.2476,3.247,3.2455,3.244,3.2426,3.2433,3.242,3.2408,3.2389,3.2377,3.2361,3.2337,3.2318,3.2308,3.2288,3.2274,3.2275,3.2269,3.2269,3.2267,3.2306,3.2312,3.2269,3.2269,3.2269,3.2269,3.2269,3.2269,3.2449,3.2426,3.2425,3.2396,3.239,3.237,3.2362,3.2351,3.2342,3.2315,3.23,3.2294,3.2283,3.2262,3.2243,3.2241,3.2232,3.2225,3.2223,3.2259,3.2264,3.2269,3.2275,3.2224,3.2224,3.2186,3.2185,3.2185]}]]